Location: Mountain View
(32.6992°N, 117.1128°W)
Time: 06:12:25
(UTC+00:00)

Daily predictions for brighter satellites

Satellite Brightness Start Highest point End
(mag) Time Altitude Azimuth Time Altitude Azimuth Time Altitude Azimuth
ATLAS 3B CENTAUR R/B 4.2 12:06:12 37° SSW 12:06:45 37° SSW 12:19:43 10° SE
COSMOS 2428 4.1 12:20:32 28° NNE 12:20:32 28° NNE 12:23:05 10° NNE
CZ-4B R/B 4.2 12:21:55 10° ESE 12:23:28 18° E 12:23:28 18° E
Meteor 2-5 Rocket 4.4 12:30:40 44° S 12:30:40 44° S 12:34:29 10° S
CZ-2C R/B 2.6 12:34:12 38° ESE 12:34:12 38° ESE 12:36:55 10° E
IRIDIUM 103 4.5 12:29:04 10° S 12:34:14 71° E 12:39:26 10° N
OAO 2 Rocket 3.4 12:43:18 65° NNE 12:43:18 65° NNE 12:47:45 10° ENE
ADEOS 4.2 12:38:21 10° N 12:49:25 - SSW 12:41:47 42° N
Meteor 2-10 4.1 12:38:07 10° S 12:43:49 88° E 12:49:23 10° N
H-II Stage 2 4.1 12:48:34 12° SSE 12:48:34 12° SSE 12:49:21 10° SSE
Cosmos 1892 Rocket 4.0 12:49:56 28° NNE 12:52:04 61° E 12:56:25 10° SSE
IRIDIUM 106 4.1 12:47:20 10° S 12:52:32 75° W 12:57:44 10° N
SL-24 R/B 3.9 12:49:44 10° SSE 12:53:24 77° E 12:53:24 77° E
Meteor 1-24 Rocket 3.7 12:59:02 52° W 12:59:23 53° W 13:04:55 10° S
Cosmos 1763 Rocket 4.0 13:01:32 39° NNW 13:01:32 39° NNW 13:05:14 10° N
COSMO-SKYMED 1 2.9 12:57:44 10° SSE 13:02:01 64° ENE 13:05:40 14° N
Cosmos 1844 4.1 13:03:00 42° WSW 13:03:00 42° WSW 13:08:09 10° S
Cosmos 841 Rocket 3.4 13:01:23 10° SSW 13:06:30 85° ESE 13:11:39 10° NNE
CZ-4B R/B 2.6 13:02:55 10° NNE 13:06:34 84° ESE 13:10:18 10° S
SJ 16-02 1.9 13:08:09 39° SW 13:08:09 39° SW 13:11:24 10° S
ATLAS 5 CENTAUR R/B 3.7 13:06:56 14° NNE 13:08:46 24° ENE 13:13:41 10° ESE
Lacrosse 4 Rocket 3.0 13:09:04 10° S 13:12:52 35° ESE 13:16:46 10° NE
FALCON 9 R/B 2.2 13:11:05 29° WSW 13:13:09 39° SSW 13:15:53 10° SE
CZ-3A R/B 4.4 13:06:58 23° WSW 13:14:01 39° SSW 13:21:50 10° SE
Cosmos 1898 Rocket 3.5 13:09:46 13° NNW 13:14:23 78° ENE 13:19:32 10° SSE
H-2A R/B 2.8 13:11:12 10° NNE 13:14:54 75° E 13:18:38 10° S
Gbstr 26 Del rocket 4.3 13:09:32 19° SW 13:15:04 78° NW 13:23:12 10° NE
USA 267 4.4 13:10:32 10° S 13:15:19 22° WSW 13:15:40 21° WSW
Cosmos 1544 Rocket 3.3 13:14:41 10° S 13:18:59 76° W 13:23:19 10° N
GPS 2-04 Rocket1 2.8 13:19:53 45° W 13:20:57 66° SSW 13:25:04 10° ESE
Cosmos 1570 Rocket 3.9 13:15:54 10° SSW 13:21:06 86° WNW 13:26:21 10° NNE
Cosmos 1844 Rocket 4.1 13:23:23 19° WSW 13:23:23 19° WSW 13:25:54 10° SSW
SL-16 R/B 3.6 13:19:30 10° S 13:24:43 40° ESE 13:29:58 10° NE
Cosmos 1400 Rocket 3.5 13:20:50 10° S 13:24:48 58° E 13:28:50 10° NNE
SKYMED 3 4.5 13:21:42 10° S 13:25:59 63° W 13:29:56 12° NNW
Atlas Centaur 2 3.2 13:21:43 22° WSW 13:27:19 73° S 13:35:52 10° E
SL-4 R/B 1.6 13:28:29 25° SW 13:30:31 80° NW 13:34:27 10° NE
NOSS 0 Rocket 4.2 13:25:48 10° SW 13:31:37 42° WNW 13:37:27 10° N
Cosmos 2278 Rocket 2.5 13:27:27 10° NNW 13:33:07 69° ENE 13:38:44 10° SSE
Meteor 1-21 Rocket 4.4 13:27:33 10° N 13:33:18 80° E 13:39:09 10° S
YAOGAN 6 2.6 13:30:44 10° NNE 13:34:26 84° E 13:38:06 10° S
CZ-2C R/B 4.5 13:32:06 10° SE 13:36:31 29° ENE 13:41:02 10° N
Cosmos 2237 Rocket 2.4 13:31:34 10° SW 13:37:00 48° WNW 13:42:29 10° N
Okean 1-7 Rocket 3.6 13:32:43 10° NNW 13:37:11 60° W 13:41:34 10° S
CENTAUR R/B 3.7 13:32:41 10° S 13:37:46 40° ESE 13:43:36 10° NE
PSLV R/B 3.9 13:35:13 10° NNE 13:39:13 82° E 13:43:16 10° S
Cosmos 2208 Rocket 4.0 13:35:59 10° SSW 13:41:24 69° WNW 13:46:50 10° N
Cosmos 2219 Rocket 4.1 13:44:04 11° NW 13:44:04 11° NW 13:44:32 10° NNW
USA 276 3.1 13:42:07 27° WSW 13:42:53 30° SW 13:45:41 10° SSE
Cosmos 1626 Rocket 3.7 13:39:51 10° N 13:44:20 79° E 13:48:46 10° S
Cosmos 1814 Rocket 4.0 13:39:26 10° SSW 13:44:28 56° WNW 13:49:31 10° N
Cosmos 1455 Rocket 4.2 13:42:34 10° SW 13:45:56 21° WNW 13:49:17 10° NNW
ERS-2 2.4 13:43:54 10° S 13:47:23 43° W 13:50:53 10° NNW
Cosmos 1689 Rocket 1.9 13:44:52 10° S 13:47:45 69° WSW 13:50:38 10° NNW
Cosmos 1937 Rocket 3.4 13:43:18 10° NNW 13:48:33 69° WSW 13:53:42 10° S
SKYMED 2 4.3 13:46:13 10° SSW 13:50:04 31° W 13:53:57 10° NW
GEOS 3 Rocket 3.7 13:45:15 10° SE 13:50:34 84° ENE 13:55:59 10° NNW
USA 238 DEB 3.8 13:45:26 10° SSW 13:51:53 77° ESE 13:58:36 10° NNE
USA 238 3.8 13:45:34 10° SSW 13:52:01 76° ESE 13:58:43 10° NNE
ATLAS CENTAUR R/B 0.9 13:48:30 10° SSW 13:52:15 76° WNW 13:55:55 10° NNE
Aurora 2 Rocket 4.5 13:48:19 10° WSW 13:53:10 39° S 13:59:59 10° ESE
Cosmos 1953 3.2 13:49:51 10° SW 13:53:16 27° W 13:56:41 10° NNW
Envisat 3.0 13:48:52 10° N 13:53:52 61° WNW 13:58:51 10° SSW
Cosmos 1908 3.6 13:52:47 10° SSW 13:56:20 38° W 13:59:54 10° N
CZ-4B R/B 3.1 13:54:26 10° SW 13:56:31 16° W 13:56:35 15° W
H-2A R/B 2.9 13:54:18 10° NNE 13:58:48 75° ESE 14:03:17 10° S
NOAA 6 4.0 13:55:09 10° N 14:00:21 76° WNW 14:05:30 10° SSW
Cosmos 44 Rocket 3.4 14:02:04 10° NNW 14:07:18 79° WSW 14:12:27 10° SSE
USA 307 3.0 14:04:51 10° WSW 14:08:57 52° NW 14:13:05 10° NNE
MOS 1 Rocket 4.2 14:06:15 10° SSW 14:10:48 32° W 14:15:09 10° NW
Delta 142 4.3 14:06:45 10° WSW 14:10:56 51° S 14:16:00 10° ESE
CZ-2C R/B 1.2 14:08:32 10° W 14:12:38 67° N 14:16:29 10° ENE
Okean O Rocket 1.9 14:08:51 10° NNE 14:13:12 72° ESE 14:17:30 10° S
Cosmos 1315 Rocket 3.1 14:09:33 10° S 14:13:25 70° E 14:17:20 10° NNE
NOAA 11 4.5 14:10:09 10° NNE 14:15:36 75° E 14:21:02 10° S
USA 308 3.3 14:13:41 10° WSW 14:17:43 43° NW 14:21:45 10° NNE
CZ-3 Stage 3 0.4 14:15:06 10° W 14:17:49 52° S 14:19:27 10° ESE
USA 305 3.3 14:14:09 10° WSW 14:18:09 40° NW 14:22:09 10° NNE
Cosmos 1726 Rocket 4.3 14:14:38 10° S 14:18:51 58° E 14:23:05 10° NNE
FALCON 9 DEB 3.9 14:21:11 10° SSW 14:24:13 51° SE 14:27:14 10° NE
Cosmos 1602 Rocket 3.9 14:20:24 10° NNW 14:24:40 46° W 14:28:56 10° SSW
MOS 1-B 4.5 14:19:41 10° N 14:25:18 55° WNW 14:30:54 10° SSW
Cosmos 1092 Rocket 4.0 14:19:28 10° NNW 14:25:30 60° W 14:31:33 10° S
